Regional Weather Roundup
Issued by NWS

Home | Current Version | Previous Version | Text Only | Print | Product List | Glossary Off
Versions: 1 2 3 4 5 6 7 8 9 10 11 12 13 14 15 16 17 18 19 20 21 22 23 24 25 26 27 28 29 30 31 32 33 34 35 36 37 38 39 40 41 42 43 44 45 46 47 48 49

718
ASUS45 KTFX 231410
RWRMT
MONTANA REGIONAL WEATHER ROUNDUP
NATIONAL WEATHER SERVICE GREAT FALLS MT
800 AM MDT WED AUG 23 2017

NOTE: "FAIR" INDICATES FEW OR NO CLOUDS BELOW 12000 FEET WITH NO
SIGNIFICANT WEATHER AND/OR OBSTRUCTIONS TO VISIBILITY.

MTZ001>007-043-231500-
WEST OF THE DIVIDE

CITY           SKY/WX    TMP DP  RH WIND       PRES   REMARKS
KALISPELL      SUNNY     50  46  86 CALM      30.04R
MISSOULA       MOSUNNY   52  40  63 CALM      30.10R HAZE
BUTTE          SUNNY     45  30  55 SE5       30.22R HAZE
MULLAN PASS    SUNNY     61  35  37 CALM      30.20R
ANACONDA         N/A     57  28  33 S6        30.17S
DEER LODGE       N/A     50  36  57 CALM      30.18R
EUREKA           N/A     52  39  62 MISG      30.01R
HAMILTON         N/A     55  37  50 CALM      30.09S
LIBBY            N/A     50  39  66 CALM      30.02R
$$

MTZ008-052>055-231500-
SOUTHWEST MONTANA

CITY           SKY/WX    TMP DP  RH WIND       PRES   REMARKS
BOZEMAN        SUNNY     53  40  61 SE3       30.16R
DILLON         SUNNY     54  33  45 S14       30.19R
W YELLOWSTONE  CLOUDY    41  32  70 CALM      30.33S
ENNIS          SUNNY     52  34  50 CALM      30.25S
$$

MTZ009-010-012-014-046-048-049-054-231500-
EAST SLOPES AND CENTRAL MONTANA

CITY           SKY/WX    TMP DP  RH WIND       PRES   REMARKS
CUT BANK       SUNNY     59  39  47 W5        30.03R
GREAT FALLS    SUNNY     59  35  40 SW6       30.04R
MALMSTROM AFB  SUNNY     59  36  43 W6        30.04R
HELENA         SUNNY     60  39  45 CALM      30.13R HAZE
AUGUSTA          N/A     69  33  26 NW13      30.08R
BOWMANS CRNR     N/A     60  31  33 S8        30.07R
CHOTEAU          N/A     61  37  41 SW9       30.06S
FAIRFIELD        N/A     62  37  38 CALM      30.04R
POWER            N/A     61  35  37 SW6       30.04R
RAYNESFORD       N/A     58  36  43 CALM      30.07R
ULM              N/A     61  35  38 S3        30.05R HAZE
$$

MTZ011-013-016-021-045-047-050-051-231500-
NORTH CENTRAL MONTANA

CITY           SKY/WX    TMP DP  RH WIND       PRES   REMARKS
HAVRE          SUNNY     56  39  53 W5        29.99R
LEWISTOWN      SUNNY     59  37  44 S5        30.07R
N BAR RANCH      N/A     61  37  41 CALM      30.10S HAZE
CHINOOK          N/A     61  39  44 CALM      29.98R
DENTON           N/A     59  36  41 S9        30.00R
GEYSER           N/A     67  33  27 SW13      30.05R
GRASS RANGE      N/A     61  36  39 NW5       30.01R
JUDITH GAP       N/A     62  34  36 SW10      30.10S
WINIFRED         N/A     65  35  32 E7        30.03R
$$

MTZ017>020-022>027-061-062-231500-
NORTHEAST MONTANA

CITY           SKY/WX    TMP DP  RH WIND       PRES   REMARKS
GLASGOW        SUNNY     63  40  42 E9        30.00R
JORDAN           N/A     58  37  45 CALM      30.00F
SIDNEY         SUNNY     59  47  64 S5        30.04S
WOLF POINT     SUNNY     61  39  44 CALM      30.01S
MALTA          SUNNY     57  45  62 CALM      29.98S
PLENTYWOOD       N/A     63  43  48 CALM      30.02S
POPLAR           N/A     59  45  58 N3        30.01F
$$

MTZ028>42-056>058-231500-
SOUTHCENTRAL AND SOUTHEAST MONTANA

CITY           SKY/WX    TMP DP  RH WIND       PRES   REMARKS
BAKER          SUNNY     60  45  57 SE13      30.08S
BILLINGS       MOSUNNY   59  36  42 SW13      30.06R
LIVINGSTON     SUNNY     53  35  50 VRB6      30.14R
MILES CITY     SUNNY     62  43  49 N5        30.02R
BIG TIMBER     SUNNY     61  36  39 VRB6      30.14S
HARLOWTON        N/A     55  35  47 MISG      30.10R
LAUREL           N/A     57  39  51 SW9       30.07R
$$

REGIONAL REPORTS...DAKOTAS

CITY           SKY/WX    TMP DP  RH WIND       PRES   REMARKS
WILLISTON      SUNNY     63  45  51 S6        30.03S
MINOT          SUNNY     65  46  50 SE5       30.02S
DICKINSON      SUNNY     65  46  50 S14       30.06S
BEACH            N/A     63  45  51 S15       30.09F
CROSBY           N/A     63  45  51 S10G16    30.01S
TIOGA            N/A     64  43  45 SW7       30.05S
WATFORD CITY     N/A     68  45  42 S9G15     30.03S
BISMARCK       SUNNY     57  51  80 E5        30.07F
GRAND FORKS    PTSUNNY   59  52  77 CALM      30.10S
FARGO          SUNNY     60  52  74 CALM      30.12R
BUFFALO SD       N/A     59  49  69 NE3       30.01F
RAPID CITY     SUNNY     66  52  60 N6        30.06S
$$

REGIONAL REPORTS...WYOMING/IDAHO/WASHINGTON

CITY           SKY/WX    TMP DP  RH WIND       PRES   REMARKS
GILLETTE       SUNNY     65  47  52 MISG      30.11R
SHERIDAN       SUNNY     60  44  55 CALM      30.08S
BUFFALO WY     SUNNY     74  33  22 W5        30.14S
CODY           SUNNY     61  40  45 N5        30.16F
YELLOWSTONE LA   N/A     42  38  85 CALM      30.41S
IDAHO FALLS    MOSUNNY   53  47  79 NW3       30.20R
SALMON         SUNNY     49  38  65 CALM      30.18R HAZE
BOISE          CLOUDY    71  41  33 SE9       30.01R
SPOKANE        PTCLDY    61  44  53 SE6       30.00R
$$

REGIONAL REPORTS...ALBERTA

CITY           SKY/WX    TMP DP  RH WIND       PRES   REMARKS
EDMONTON       SUNNY     59  54  82 SE8       29.92F
CALGARY        MOSUNNY   55  46  71 CALM      29.97S
LETHBRIDGE     MOSUNNY   63  41  45 SW6       29.95S
MEDICINE HAT   MOSUNNY   61  48  63 VRB2      29.93S
$$

REGIONAL REPORTS...SASKATCHEWAN

CITY           SKY/WX    TMP DP  RH WIND       PRES   REMARKS
SWIFT CURRENT  SUNNY     68  41  37 SW8       29.98S
REGINA         MOSUNNY   59  43  55 S5        29.99S
SASKATOON      MOSUNNY   59  54  82 E8        30.02S
$$




USA.gov is the U.S. government's official web portal to all federal, state and local government web resources and services.